Regional Weather Roundup
Issued by NWS Glasgow, MT

Home | Current Version | Previous Version | Text Only | Print | Product List | Glossary On
Versions: 1 2 3 4 5 6 7 8 9 10 11 12 13 14 15 16 17 18 19 20 21 22 23 24 25 26 27 28 29 30 31 32 33 34 35 36 37 38 39 40 41 42 43 44 45 46 47 48 49 50
000
ASUS45 KGGW 280015
RWRGGW
HOURLY WEATHER ROUNDUP FOR NORTHEAST MONTANA
NATIONAL WEATHER SERVICE GLASGOW MONTANA
600 PM MDT FRI MAR 27 2015

NOTE: "FAIR" INDICATES FEW OR NO CLOUDS BELOW 12,000 FEET WITH NO
SIGNIFICANT WEATHER AND/OR OBSTRUCTIONS TO VISISBILITY.

NORTHEAST MONTANA


CITY           SKY/WX    TMP DP  RH WIND       PRES   REMARKS
GLASGOW        MOSUNNY   68  34  28 W14       29.87S
6HR MIN TEMP:  59; 6HR MAX TEMP:  71;

PLENTYWOOD       N/A     60  38  43 SW12G20     N/A
WOLF POINT     PTSUNNY   68  37  32 N8        29.87S
JORDAN           N/A     68  35  29 NW6       29.89F
WINNETT          N/A     70  28  21 NW10G20     N/A
SIDNEY         CLOUDY    63  37  39 N7        29.89R
GLENDIVE         N/A     66  36  32 NW15G21   29.90R
MALTA            N/A     69  33  26 W12G21      N/A
SCOBEY           N/A     62  37  39 CALM      29.87S

FORT PECK REPORTS


CITY           SKY/WX    TMP DP  RH WIND       PRES   REMARKS
FORT PECK        N/A     67  35  30 W12         N/A
THE PINES        N/A     66  30  26 NW7         N/A

SOUTHEAST MONTANA


CITY           SKY/WX    TMP DP  RH WIND       PRES   REMARKS
BILLINGS       MOSUNNY   75  23  14 NW17      29.95R
MILES CITY     CLOUDY    68  33  27 N13       29.90S
BAKER          MOSUNNY   66  35  31 NW21      29.91R
LIVINGSTON     MOSUNNY   73  29  19 W17G26    29.98F

CENTRAL MONTANA


CITY           SKY/WX    TMP DP  RH WIND       PRES   REMARKS
HAVRE          MOSUNNY   74  29  19 NW14      29.86S
LEWISTOWN      SUNNY     71  27  19 NW14G22   29.96
GREAT FALLS    MOSUNNY   70  29  21 SW17      29.94S
CUT BANK       PTSUNNY   63  34  33 W22       29.92F
HELENA         MOSUNNY   74  29  19 W20G31    29.96F
BUTTE          MOSUNNY   65  29  25 W7        30.07F
BOZEMAN        SUNNY     73  28  18 W15       29.98F

WESTERN MONTANA


CITY           SKY/WX    TMP DP  RH WIND       PRES   REMARKS
MISSOULA       SUNNY     73  38  27 W3        29.98F
KALISPELL      NOT AVBL

NORTH DAKOTA


CITY           SKY/WX    TMP DP  RH WIND       PRES   REMARKS
WILLISTON      MOSUNNY   60  37  42 N12       29.88F
DICKINSON      SUNNY     60  34  37 N15       29.88R
MINOT          PTSUNNY   45  35  68 NE12      29.90R
BISMARCK       MOSUNNY   50  34  54 E6        29.90R

SOUTHERN SASKATCHEWAN


CITY           SKY/WX    TMP DP  RH WIND       PRES   REMARKS
REGINA         CLOUDY    45  37  76 NE13      29.91R
MOOSE JAW      PTSUNNY   52  43  71 E14       29.90R
ESTEVAN        PTSUNNY   48  37  66 N13       29.91R
SWIFT CURRENT  SUNNY     63  34  34 NE7       29.83F



USA.gov is the U.S. government's official web portal to all federal, state and local government web resources and services.